Terminal Aerodrome Forecast
Issued by NWS

Home | Current Version | Previous Version | Text Only | Print | Product List | Glossary On
Versions: 1 2 3 4 5 6 7 8 9 10 11 12 13 14
000
FTUS43 KFGF 260500
TAFTVF
TAF
KTVF 260520Z 2606/2706 VRB04KT P6SM SKC
     FM261500 25012G20KT P6SM SCT150
     FM262000 26016G23KT P6SM VCSH BKN070
      AMD LTD TO CLD VIS AND WIND=

USA.gov is the U.S. government's official web portal to all federal, state and local government web resources and services.